Voltar ao catálogo

FENGYUN 1C DEB

AtivoSSO
NORAD 30690·DEBRIS·🇨🇳 China

Lançado May 10, 1999 de Taiyuan Satellite Launch Center

Loading…

Próximas Passagens (próximas 24 horas)

TLE

AtualizadoSource: Space-Track

Época: Sep 14, 2026, 13:09 UTC

1 30690U 99025AQY 26257.54830312  .00001281  00000-0  80632-3 0  9995
2 30690  99.1680 194.8604 0104630  34.3416  19.2765 14.03520024995756

Acompanhe FENGYUN 1C DEB em tempo real com AllMySat

Download on the App Store